Point Lepreau, New Brunswick

10:54 PM ADT on May 24, 2017 (GMT -0300)
Point Lepreau

Weather History for CWPE - February, 2013

Change the Weather History Date:

Wednesday, February 20, 2013

  Actual Average (CYSJ) Record (CYSJ)
Temperature  
Mean Temperature 38 °F -  
Max Temperature 43 °F 28 °F 41 °F (2016)
Min Temperature 32 °F 10 °F -4 °F (2007)
Degree Days  
Heating Degree Days 26    
Moisture  
Dew Point 34 °F    
Average Humidity 84    
Maximum Humidity 97    
Minimum Humidity 65    
Precipitation  
Precipitation 0.31 in - - ()
Sea Level Pressure  
Sea Level Pressure 29.54 in    
Wind  
Wind Speed 11 mph ()    
Max Wind Speed 23 mph    
Max Gust Speed 43 mph    
Averages and records for this station are not official NWS values.
T = Trace of Precipitation, MM = Missing Value Source: Averaged Metar Reports

Daily Weather History Graph

Daily Weather History Graph

Search for Another Location

Airport or City:

Trip Planner

Search our weather history database for the weather conditions in past years. The results will help you decide how hot, cold, wet, or windy it might be!

Date:

Astronomy

Feb. 20, 2013 Rise Set
Actual Time 7:18 AM AST 6:01 PM AST
Civil Twilight 6:48 AM AST 6:30 PM AST
Nautical Twilight 6:14 AM AST 7:05 PM AST
Astronomical Twilight 5:40 AM AST 7:39 PM AST
Moon 1:10 PM AST (2/20) 3:44 AM AST (2/20)
Length of Visible Light 11h 42m
Length of Day
10h 42m
Waxing Gibbous, 75% of the Moon is Illuminated
Feb 20
Waxing Gibbous
Feb 25
Full
Mar 4
Last Quarter
Mar 11
New
Mar 19
First Quarter

Hourly Weather History & Observations

Time (AST) Temp. Windchill Dew Point Humidity Pressure Visibility Wind Dir Wind Speed Gust Speed Precip Events Conditions
12:00 AM 38.7 °F 31.4 °F 34.3 °F 84% 29.88 in - SE 11.5 mph - N/A   Unknown
1:00 AM 38.1 °F 31.2 °F 33.8 °F 84% 29.83 in - East 10.4 mph - N/A   Unknown
2:00 AM 38 °F - 33 °F 77% 29.83 in - East 12.7 mph - -  
2:00 AM 37.9 °F 30.0 °F 33.3 °F 83% 29.83 in - East 12.7 mph - N/A   Unknown
3:00 AM 38.1 °F 31.2 °F 34.5 °F 87% 29.83 in - East 10.4 mph - N/A   Unknown
4:00 AM 37.9 °F 30.5 °F 34.2 °F 86% 29.75 in - East 11.5 mph 19.6 mph N/A   Unknown
5:00 AM 37.9 °F 29.2 °F 33.8 °F 85% 29.70 in - East 15.0 mph 25.3 mph 0.04 in   Unknown
6:00 AM 37.2 °F 28.3 °F 34.5 °F 90% 29.63 in - East 15.0 mph 26.5 mph 0.06 in   Unknown
7:00 AM 36.1 °F 26.2 °F 34.0 °F 92% 29.57 in - East 17.3 mph 29.9 mph 0.05 in   Unknown
8:00 AM 37 °F - 35 °F 89% 29.48 in - East 18.4 mph - -  
8:00 AM 36.7 °F 26.6 °F 34.9 °F 93% 29.48 in - East 18.4 mph 29.9 mph 0.07 in   Unknown
9:00 AM 36.5 °F 25.2 °F 34.5 °F 93% 29.45 in - East 23.0 mph 42.6 mph 0.15 in   Unknown
10:00 AM 37.2 °F 26.4 °F 36.3 °F 97% 29.45 in - East 21.9 mph 35.7 mph 0.12 in   Unknown
11:00 AM 41.4 °F 34.3 °F 40.5 °F 97% 29.44 in - South 12.7 mph 18.4 mph 0.06 in   Unknown
12:00 PM 43.0 °F 38.2 °F 41.2 °F 93% 29.42 in - SSW 8.1 mph - N/A   Unknown
1:00 PM 42.3 °F 36.8 °F 40.5 °F 93% 29.40 in - South 9.2 mph - N/A   Unknown
2:00 PM 43 °F - 40 °F 83% 29.38 in - SW 8.1 mph - -  
2:00 PM 43.2 °F 38.4 °F 39.6 °F 87% 29.38 in - SW 8.1 mph - N/A   Unknown
3:00 PM 40.5 °F 35.8 °F 35.8 °F 83% 29.38 in - WSW 6.9 mph - N/A   Unknown
4:00 PM 37.4 °F 30.3 °F 32.9 °F 84% 29.40 in - West 10.4 mph 17.3 mph N/A   Unknown
5:00 PM 36.3 °F 30.1 °F 29.5 °F 76% 29.42 in - West 8.1 mph - N/A   Unknown
6:00 PM 35.1 °F 29.3 °F 27.9 °F 75% 29.44 in - West 6.9 mph - N/A   Unknown
7:00 PM 35.1 °F 30.1 °F 28.2 °F 76% 29.46 in - West 5.8 mph - N/A   Unknown
8:00 PM 35 °F - 28 °F 65% 29.46 in - West 5.8 mph - -  
8:00 PM 35.4 °F 30.5 °F 27.5 °F 73% 29.46 in - West 5.8 mph - N/A   Unknown
9:00 PM 35.1 °F 29.3 °F 27.9 °F 75% 29.46 in - West 6.9 mph - N/A   Unknown
10:00 PM 34.3 °F 28.4 °F 27.3 °F 76% 29.46 in - West 6.9 mph - N/A   Unknown
11:00 PM 32.9 °F 25.3 °F 25.3 °F 74% 29.46 in - WNW 9.2 mph - N/A   Unknown